Date String (YYYY-MM-DD hh:mm:ss) UTC,Instrument flags,Ambient pressure (hPa),Sample flow (lpm),Bypass flow (lpm),Sample temperature (°C),Ambient temperature (°C),ASC tube jacket temperature (°C),LED temperature (°C),Box temperature (°C),Sample RH (%),Span deviation,Mass concentration (μg/m³),Mass concentration (μg/m³),Mass concentration (μg/m³)
DateTimeUTC,F1_M11,P_M11,Q1_M11,Q2_M11,T1_M11,T2_M11,T3_M11,T4_M11,T5_M11,U1_M11,ZSPAN_M11,X0_M11,X2_M11,X1_M11
2022-04-21 20:00:00,,0820.6,5.01,0.00,29.8,28.3,00.0,38.7,31.6,12.9,-000.3,0032.05,0010.42,0006.45
2022-04-21 20:01:00,,0820.5,5.00,0.00,29.9,28.5,00.0,38.7,31.6,12.7,0000.2,0031.67,0010.42,0006.45
2022-04-21 20:02:00,,0820.6,4.99,0.00,29.9,28.7,00.0,38.7,31.7,12.8,0000.0,0030.84,0010.44,0006.45
2022-04-21 20:03:00,,0820.6,5.01,0.00,29.9,28.8,00.0,38.8,31.7,12.8,0000.0,0031.56,0010.43,0006.44
2022-04-21 20:04:00,,0820.6,4.99,0.00,30.0,28.9,00.0,38.8,31.8,12.8,0000.9,0032.06,0010.53,0006.44
2022-04-21 20:05:00,,0820.6,5.01,0.00,30.0,29.0,00.0,38.8,31.8,12.8,0002.1,0034.13,0010.54,0006.45
2022-04-21 20:06:00,,0820.6,5.00,0.00,30.0,29.1,00.0,38.8,31.9,12.9,0002.6,0033.05,0010.62,0006.45
2022-04-21 20:07:00,,0820.6,4.99,0.00,30.1,29.2,00.0,38.8,31.9,12.9,0001.5,0032.99,0010.67,0006.45
2022-04-21 20:08:00,,0820.6,5.01,0.00,30.1,29.3,00.0,38.9,32.0,12.8,0001.6,0035.10,0010.67,0006.44
2022-04-21 20:09:00,,0820.6,4.99,0.00,30.2,29.3,00.0,38.9,32.0,12.9,0000.6,0035.39,0010.77,0006.47
2022-04-21 20:10:00,,0820.6,5.02,0.00,30.1,28.1,00.0,38.9,31.7,12.9,0001.4,0034.67,0010.75,0006.51
2022-04-21 20:11:00,,0820.6,4.98,0.00,30.0,25.8,00.0,38.9,31.2,13.4,0001.9,0035.85,0010.69,0006.51
2022-04-21 20:12:00,,0820.6,5.01,0.00,29.8,25.5,00.0,38.9,31.1,13.4,0001.5,0036.62,0010.69,0006.52
2022-04-21 20:13:00,,0820.5,5.01,0.00,29.7,26.0,00.0,38.8,31.2,13.5,0000.6,0036.92,0010.69,0006.54
2022-04-21 20:14:00,,0820.4,4.98,0.00,29.7,26.5,00.0,38.8,31.2,13.7,0000.4,0036.47,0010.64,0006.55
2022-04-21 20:15:00,,0820.4,5.00,0.00,29.7,27.0,00.0,38.7,31.3,13.6,0000.2,0036.68,0010.70,0006.55
2022-04-21 20:16:00,,0820.3,5.00,0.00,29.7,27.4,00.0,38.7,31.4,13.9,-000.2,0035.96,0010.81,0006.61
2022-04-21 20:17:00,,0820.3,5.00,0.00,29.7,27.8,00.0,38.7,31.4,13.9,-000.1,0035.77,0010.86,0006.67
2022-04-21 20:18:00,,0820.4,4.99,0.00,29.8,28.1,00.0,38.7,31.5,13.8,0000.2,0035.18,0010.94,0006.74
2022-04-21 20:19:00,,0820.3,5.01,0.00,29.8,28.3,00.0,38.7,31.6,13.9,0000.3,0035.47,0011.06,0006.82
2022-04-21 20:20:00,,0820.5,5.00,0.00,29.8,28.5,00.0,38.7,31.6,14.2,-000.1,0034.56,0011.10,0006.85
2022-04-21 20:21:00,,0820.4,5.00,0.00,29.8,28.7,00.0,38.7,31.7,14.0,-000.2,0035.13,0011.30,0006.94
2022-04-21 20:22:00,,0820.4,4.99,0.00,29.9,28.8,00.0,38.7,31.8,14.0,0000.1,0035.31,0011.52,0007.07
2022-04-21 20:23:00,,0820.4,5.02,0.00,29.9,28.9,00.0,38.7,31.8,14.0,0000.3,0038.54,0011.63,0007.19
2022-04-21 20:24:00,,0820.4,4.99,0.00,30.0,29.0,00.0,38.8,31.8,14.2,0000.6,0040.93,0011.79,0007.28
2022-04-21 20:25:00,,0820.4,5.01,0.00,30.0,29.1,00.0,38.8,31.9,14.0,0000.2,0042.34,0012.03,0007.38
2022-04-21 20:26:00,,0820.4,5.00,0.00,30.0,29.1,00.0,38.8,31.9,13.9,0001.3,0045.00,0012.12,0007.50
2022-04-21 20:27:00,,0820.3,4.99,0.00,30.1,29.2,00.0,38.8,31.9,14.1,0002.9,0045.31,0012.00,0007.53
2022-04-21 20:28:00,,0820.3,5.01,0.00,30.1,28.2,00.0,38.8,31.7,14.1,0003.0,0045.47,0012.00,0007.58
2022-04-21 20:29:00,,0820.3,5.01,0.00,29.9,25.9,00.0,38.8,31.1,14.1,0003.3,0046.54,0012.07,0007.65
2022-04-21 20:30:00,,0820.3,4.98,0.00,29.7,25.3,00.0,38.8,31.0,14.2,0004.4,0045.13,0012.10,0007.70
2022-04-21 20:31:00,,0820.4,5.02,0.00,29.7,25.8,00.0,38.8,31.0,14.4,0005.0,0045.35,0012.12,0007.78
2022-04-21 20:32:00,,0820.4,5.00,0.00,29.6,26.3,00.0,38.7,31.1,14.7,0004.9,0046.06,0012.07,0007.81
2022-04-21 20:33:00,,0820.4,5.01,0.00,29.6,26.8,00.0,38.6,31.2,14.6,0005.1,0045.79,0012.11,0007.78
2022-04-21 20:34:00,,0820.3,4.99,0.00,29.6,27.2,00.0,38.6,31.3,14.4,0005.5,0042.85,0012.21,0007.79
2022-04-21 20:35:00,,0820.3,5.01,0.00,29.6,27.6,00.0,38.6,31.4,14.2,0006.1,0041.15,0012.23,0007.80
2022-04-21 20:36:00,,0820.3,4.99,0.00,29.7,27.9,00.0,38.6,31.4,14.5,0006.2,0041.48,0012.16,0007.79
2022-04-21 20:37:00,,0820.3,5.01,0.00,29.7,28.2,00.0,38.6,31.5,14.4,0006.4,0038.81,0012.13,0007.76
2022-04-21 20:38:00,,0820.3,4.99,0.00,29.7,28.4,00.0,38.6,31.6,14.5,0006.4,0037.41,0012.18,0007.76
2022-04-21 20:39:00,,0820.3,5.00,0.00,29.8,28.6,00.0,38.6,31.6,14.5,0006.4,0037.71,0012.31,0007.75
2022-04-21 20:40:00,,0820.3,5.00,0.00,29.8,28.7,00.0,38.6,31.7,14.3,0006.3,0037.83,0012.24,0007.72
2022-04-21 20:41:00,,0820.3,4.99,0.00,29.8,28.8,00.0,38.7,31.7,14.1,0005.4,0037.83,0012.19,0007.70
2022-04-21 20:42:00,,0820.3,5.02,0.00,29.9,28.8,00.0,38.7,31.7,14.1,0003.6,0038.35,0012.17,0007.71
2022-04-21 20:43:00,,0820.3,4.99,0.00,29.9,28.9,00.0,38.7,31.8,14.1,0002.3,0038.57,0012.21,0007.69
2022-04-21 20:44:00,,0820.3,5.01,0.00,29.9,29.0,00.0,38.7,31.8,14.1,0001.2,0040.75,0012.18,0007.71
2022-04-21 20:45:00,,0820.3,5.00,0.00,30.0,29.0,00.0,38.7,31.8,14.1,0000.9,0042.36,0012.14,0007.75
2022-04-21 20:46:00,,0820.2,4.99,0.00,30.0,29.1,00.0,38.8,31.9,14.3,0000.6,0042.78,0012.08,0007.74
2022-04-21 20:47:00,,0820.3,5.01,0.00,30.0,28.5,00.0,38.8,31.8,14.1,0000.6,0042.89,0012.10,0007.76
2022-04-21 20:48:00,,0820.3,5.00,0.00,29.9,26.6,00.0,38.8,31.3,14.2,0000.6,0044.29,0012.04,0007.79
2022-04-21 20:49:00,,0820.2,4.99,0.00,29.8,26.4,00.0,38.8,31.3,14.1,-000.1,0045.64,0012.07,0007.82
2022-04-21 20:50:00,,0820.2,5.00,0.00,29.7,26.8,00.0,38.7,31.3,14.2,0000.4,0045.28,0012.05,0007.87
2022-04-21 20:51:00,,0820.2,5.01,0.00,29.7,27.2,00.0,38.7,31.4,14.3,0000.9,0044.35,0012.21,0007.94
2022-04-21 20:52:00,,0820.2,5.01,0.00,29.7,27.5,00.0,38.7,31.4,14.2,0001.1,0044.22,0012.26,0007.97
2022-04-21 20:53:00,,0820.2,4.98,0.00,29.8,27.9,00.0,38.7,31.5,14.3,0001.8,0043.66,0012.32,0007.96
2022-04-21 20:54:00,,0820.1,5.01,0.00,29.8,28.2,00.0,38.7,31.6,14.5,0002.5,0042.10,0012.26,0007.97
2022-04-21 20:55:00,,0820.2,4.99,0.00,29.8,28.4,00.0,38.7,31.7,14.3,0002.7,0039.44,0012.17,0007.93
2022-04-21 20:56:00,,0820.1,5.02,0.00,29.9,28.6,00.0,38.7,31.7,14.2,0002.9,0038.14,0012.09,0007.89
2022-04-21 20:57:00,,0820.1,5.00,0.00,29.9,28.8,00.0,38.7,31.8,14.2,0003.0,0038.33,0012.05,0007.88
2022-04-21 20:58:00,,0820.0,5.00,0.00,29.9,28.9,00.0,38.7,31.8,14.1,0003.3,0039.03,0011.97,0007.87
2022-04-21 20:59:00,,0820.0,4.98,0.00,30.0,29.0,00.0,38.8,31.9,14.2,0003.3,0038.39,0011.97,0007.84
